Location: *
(45.1333°S, 169.6333°W)
Time: 21:21:00
(UTC+00:00)

CZ-4B DEB - Pass Details

Date: 26 May 2022
Orbit: 841 x 860 km, 99.1° (Epoch: 01 July)

Event Time Altitude Azimuth Distance (km) Brightness Sun altitude
Exits shadow 05:53:41 43° 92° (E) 1,179 4.5 -21.4°
Maximum altitude 05:54:03 44° 81° (E) 1,169 4.5 -21.4°
Drops below altitude 10° 05:59:16 10° 9° (N) 2,468 6.6 -22.3°
Sets 06:01:43 0° 3° (N) 3,393 7.4 -22.8°
